Location: Unspecified
(42.3650°N, 71.1030°W)
Time: 11:09:43
(UTC+00:00)

Tiros 1 - Pass Details

Date: 26 June 2024
Orbit: 624 x 656 km, 48.4° (Epoch: 20 July)

Event Time Altitude Azimuth Distance (km) Brightness Sun altitude
Rises 03:25:12 0° 236° (SW) 2,892 - -21.6°
Reaches altitude 10° 03:27:30 10° 235° (SW) 1,987 - -21.8°
Exits shadow 03:30:28 40° 228° (SW) 921 7.7 -21.9°
Maximum altitude 03:32:03 77° 150° (SSE) 644 6.9 -22.0°
Drops below altitude 10° 03:36:39 10° 65° (ENE) 2,000 9.7 -22.3°
Sets 03:38:59 0° 64° (ENE) 2,913 10.6 -22.4°
